Cloud_Cover
0 0 0 0 0 0 0 0 0 0 0 0 0 0 0 0 0 0 0 0 0 0 0 0 0 0 0 0 0 0 0 0 0 0 0 0 0 0 0 0 0 0 0 0 0
0 0 0 0 0 0 0 0 0 0 0 0 0 0 0 0 0 0 0 0 0 0 0 0 0 0 0 0 0 0 0 0 0 0 0 0 0 0 0 0 0 0 0 0 0
0 0 0 0 0 0 0 0 0 0 0 0 0 0 0 0 0 0 0 0 0 0 0 0 0 0 0 0 0 0 0 0 0 0 0 0 0 0 0 0 0 0 0 0 0
0 0 0 0 0 0 0 0 0 0 0 0 0 0 0 0 0 0 0 0 0 0 0 0 0 0 0 0 0 0 0 0 0 0 0 0 0 0 0 0 0 0 0 0 0
0 0 0 0 0 0 0 0 0 0 0 0 0 0 0 0 0 0 0 0 0 0 0 0 0 0 0 0 0 0 0 0 0 0 0 0 0 0 0 0 0 0 0 0 0
0 0 0 0 0 0 0 0 0 0 0 0 0 0 0 0 0 0 0 0 0 0 0 0 0 0 0 0 0 0 0 0 0 0 0 0 0 0 0 0 0 0 0 0 0
0 0 0 0 0 0 0 0 0 0 0 0 0 0 0 0 0 0 0 0 0 0 0 0 0 0 0 0 0 0 0 0 0 0 0 0 0 0 0 0 0 0 0 0 0
0 0 0 0 0 0 0 0 0 0 0 0 0 0 0 0 0 0 0 0 0 0 0 0 0 0 0 0 0 0 0 0 0 0 0 0 0 0 0 1 5 1 4 0 0
0 0 0 0 0 0 0 0 0 0 0 0 0 0 0 0 0 0 0 0 0 0 0 0 0 0 0 0 0 0 0 0 0 0 0 0 0 0 0 0 0 4 5 5 6
0 0 0 0 0 0 0 0 0 0 0 0 0 0 0 0 0 0 0 0 0 0 0 0 0 0 0 0 0 0 0 0 0 0 0 0 0 1 4 4 5 72 92 100 100
0 0 0 0 0 0 0 0 0 0 0 0 0 0 0 0 0 0 0 0 0 0 0 0 0 0 0 0 0 0 0 0 4 5 5 6 79 100 100 100 100 100 100 100 100
0 0 0 0 0 0 0 0 0 0 0 0 0 0 0 0 0 0 0 0 0 0 0 0 0 0 0 0 0 0 0 5 6 17 5 33 82 23 73 89 94 100 100 97 27
0 0 0 0 0 0 0 0 0 0 0 0 0 0 0 0 0 0 0 0 0 0 0 0 0 0 0 0 0 0 0 0 0 1 5 5 41 21 32 23 60 81 100 71 14
0 0 0 0 0 0 0 0 0 0 0 0 0 0 0 0 0 0 0 0 0 0 0 0 0 0 0 0 0 0 0 0 0 0 1 5 1 8 12 23 27 28 13 5 0
5 0 0 5 0 0 0 0 0 0 0 0 0 0 0 0 0 0 0 0 0 0 0 0 0 0 0 0 0 0 0 4 5 5 0 2 0 4 5 4 3 3 0 0 0
41 5 2 0 0 0 0 0 0 0 0 0 0 0 0 0 0 0 0 0 0 0 0 0 1 3 5 5 5 5 5 5 4 3 2 4 0 1 0 0 0 0 0 0 0
5 1 1 0 0 0 0 0 2 0 1 0 0 0 1 0 3 4 5 5 5 5 2 3 4 5 5 5 5 5 5 1 0 0 0 0 0 0 0 0 0 0 0 5 5
5 5 5 5 1 5 5 5 0 0 0 0 0 0 5 34 58 61 61 81 99 18 3 5 5 5 5 2 1 4 4 4 0 0 0 0 0 0 0 0 0 2 6 5 5
5 5 5 4 3 2 2 1 0 0 0 0 0 3 5 4 5 5 34 89 8 5 5 3 1 1 5 9 5 1 2 2 0 0 10 0 0 0 0 0 2 19 61 1 0
5 5 4 1 5 5 4 5 5 4 0 0 0 0 0 0 0 0 0 3 5 2 2 2 5 18 17 2 0 0 0 0 0 6 85 1 0 0 1 0 0 0 2 4 5
5 5 5 5 5 5 5 5 5 4 5 0 0 0 0 0 4 3 0 3 5 5 5 5 13 2 2 0 0 0 0 7 37 11 23 40 1 0 0 0 1 0 0 5 5
4 0 0 1 2 5 5 0 0 0 0 4 4 0 1 5 2 5 1 2 12 5 5 18 5 27 3 0 0 0 11 18 97 45 16 99 19 0 0 5 0 0 0 2 5
2 5 5 0 0 0 0 0 0 0 0 0 0 5 5 5 2 0 5 28 45 25 10 5 36 56 0 0 0 3 8 48 28 56 61 100 17 0 0 0 1 2 0 0 5
5 5 3 0 0 0 0 0 0 5 0 0 0 0 0 0 2 4 3 4 3 2 1 0 16 10 0 1 63 94 60 22 71 100 73 55 14 0 4 5 5 5 3 4 6
13 89 29 59 18 5 4 5 5 0 4 4 4 0 0 5 2 0 3 0 0 0 3 0 35 8 9 18 42 6 5 2 17 11 100 8 5 82 96 39 6 5 5 5 99
7 7 8 99 5 5 33 5 0 0 0 1 6 5 0 0 0 5 0 0 0 0 0 7 44 5 5 4 0 0 0 0 0 5 6 67 5 100 100 100 54 21 21 28 99
5 4 2 95 8 5 5 5 0 0 0 0 2 0 0 0 0 0 0 0 0 2 5 5 5 45 35 0 5 12 3 0 0 38 100 65 89 100 98 100 100 100 43 35 53